Regional Weather Roundup
Issued by NWS

Home | Current Version | Previous Version | Text Only | Print | Product List | Glossary On
Versions: 1 2 3 4 5 6 7 8 9 10 11 12 13 14 15 16 17 18 19 20 21 22 23 24 25 26 27 28 29 30 31 32 33 34 35 36 37 38 39 40 41 42 43 44 45 46 47 48 49 50
953
ASUS44 KLIX 201913
RWRLA
LOUISIANA WEATHER ROUNDUP
NATIONAL WEATHER SERVICE NEW ORLEANS LA
200 PM CDT THU JUL 20 2017

NOTE: "FAIR" INDICATES FEW OR NO CLOUDS BELOW 12,000 FEET WITH NO
      SIGNIFICANT WEATHER AND/OR OBSTRUCTIONS TO VISIBILITY.
      SKY/WX - SKY CONDITION AND SIGNIFICANT WEATHER.
      TMP - AIR TEMPERATURE.    DP   - DEWPOINT TEMPERATURE.
      RH  - RELATIVE HUMIDITY.  PRES - PRESSURE.
      HX  - HEAT INDEX.         WCI  - WIND CHILL INDEX.

*  THESE STATIONS ARE NOT NWS OR FAA STATIONS AND ARE NOT UNDER
   NWS QUALITY CONTROL.

LAZ040-048-061>063-065-066-069-202000-
SOUTHEAST LOUISIANA

CITY           SKY/WX    TMP DP  RH WIND       PRES   REMARKS
N.O. INTL ARPT MOSUNNY   94  73  50 VRB3      30.08F HX 103
N.O. LAKEFRONT MOSUNNY   91  77  63 W6        30.09F HX 104
N.O. DOWNTOWN*   N/A     95  72  47 N5          N/A  HX 103
RESERVE*       FAIR      96  74  48 NE3       30.08F HX 106
SLIDELL        MOSUNNY   95  72  47 NE7       30.07F HX 103
BATON ROUGE    MOSUNNY   93  74  53 N5        30.08F HX 103
BOOTHVILLE     SUNNY     90  78  68 NE6       30.10F HX 104
BELLE CHASSE   NOT AVBL
BOGALUSA*      FAIR      95  71  46 N6        30.10F HX 102
GALLIANO*      CLEAR     92  73  52 E5        30.08F HX 100
NEW ROADS*     FAIR      92  73  53 CALM      30.09F HX 100
GONZALES*      FAIR      93  72  49 CALM      30.07F HX 101
HAMMOND*       MOSUNNY   95  68  41 N8        30.08F HX  99
HOUMA*         MOSUNNY   91  75  59 CALM      30.08F HX 102
PORT FOURCHON* CLEAR     90  70  51 VRB3G12   30.09F HX  95

$$

LAZ041-044-053-054-202000-
SOUTHWEST LOUISIANA

CITY           SKY/WX    TMP DP  RH WIND       PRES   REMARKS
LAKE CHARLES   PTSUNNY   93  74  53 VRB3      30.08F HX 103
LAFAYETTE      PTSUNNY   94  77  57 VRB3      30.09F HX 108
PATTERSON      MOSUNNY   92  75  57 CALM      30.09F HX 103
SALT POINT       N/A     89  78  70 SW3       30.07F HX 103
NEW IBERIA     SUNNY     93  74  53 VRB3      30.09F HX 103
CHENAULT AIRPK PTSUNNY   93  75  55 N6        30.08F HX 104

$$

LAZ027-028-202000-
CENTRAL LOUISIANA

CITY           SKY/WX    TMP DP  RH WIND       PRES   REMARKS
FORT POLK      MOSUNNY   92  76  60 NW3       30.08F HX 104
ALEXANDRIA INT SUNNY     95  74  50 VRB3      30.07F HX 105
ALEXANDRIA     PTSUNNY   92  75  57 W3        30.09F HX 103

$$

LAZ001-002-202000-
NORTHWEST LOUISIANA

CITY           SKY/WX    TMP DP  RH WIND       PRES   REMARKS
SHREVEPORT     MOSUNNY   92  75  57 W3        30.08F HX 103
BARKSDALE AFB  SUNNY     94  72  49 CALM      30.08F HX 102
DTN SHREVEPORT MOSUNNY   96  76  52 N5        30.08F HX 109

$$

LAZ014-016-202000-
NORTHEAST LOUISIANA

CITY           SKY/WX    TMP DP  RH WIND       PRES   REMARKS
MONROE         MOSUNNY   96  74  48 N5        30.09F HX 107
TALLULAH       MOSUNNY   96  72  45 NE7       30.09F HX 104

$$





USA.gov is the U.S. government's official web portal to all federal, state and local government web resources and services.